Voltar ao catálogo

DELTA 1 DEB

AtivoSSO
NORAD 42640·DEBRIS·🇺🇸 United States

Lançado Jun 12, 1975 de Vandenberg Space Force Base

Loading…

Próximas Passagens (próximas 24 horas)

TLE

AtualizadoSource: Space-Track

Época: Sep 14, 2026, 06:06 UTC

1 42640U 75052LZ  26257.25446219  .00000412  00000-0  67077-3 0  9997
2 42640  99.8253  64.5715 0215666 210.0886 328.5090 13.45379024628026

Acompanhe DELTA 1 DEB em tempo real com AllMySat

Download on the App Store